Location: Quedlinburg
(51.7921°N, 11.1414°E)
Time: 17:25:31
(UTC+02:00)

NOAA 18 - Pass Details

Date: 19 March 2026
Orbit: 837 x 857 km, 98.8° (Epoch: 15 April)

Event Time Altitude Azimuth Distance (km) Brightness Sun altitude
Exits shadow 22:16:15 53° 351° (N) 1,031 5.8 -32.0°
Drops below altitude 10° 22:20:21 10° 346° (NNW) 2,465 8.3 -32.4°
Sets 22:22:43 0° 345° (NNW) 3,405 9.3 -32.6°
